Satellite-Ground Cal/Val Region Overpasses Predictions

Prediction of Satellite NPP Overpassing Cal/Val Region: PacNW

Region Location: (Latitude: 10.00, Longitude: 139.50) to (Latitude: 22.70, Longitude: 165.60).

Table of predicted overpasses for the next 14.0 days since TLE Epoch: 12/5/2020
Interval Starting Time Starting Location Ending Time Ending Location
1 12/05/2020 15:04:24 ( 22.67, 158.75) 12/05/2020 15:07:59 ( 10.04, 155.75)
2 12/06/2020 02:14:20 ( 13.03, 165.59) 12/06/2020 02:17:04 ( 22.65, 163.28)
3 12/06/2020 03:54:59 ( 10.04, 140.91) 12/06/2020 03:56:42 ( 16.09, 139.50)
4 12/06/2020 14:45:22 ( 22.66, 163.51) 12/06/2020 14:48:57 ( 10.03, 160.51)
5 12/07/2020 03:35:57 ( 10.05, 145.66) 12/07/2020 03:39:32 ( 22.67, 142.66)
6 12/07/2020 14:29:30 ( 11.43, 165.59) 12/07/2020 14:29:54 ( 10.02, 165.27)
7 12/07/2020 16:07:48 ( 22.69, 142.90) 12/07/2020 16:11:24 ( 10.01, 139.89)
8 12/08/2020 03:16:53 ( 10.01, 150.44) 12/08/2020 03:20:29 ( 22.69, 147.42)
9 12/08/2020 15:48:46 ( 22.68, 147.66) 12/08/2020 15:52:21 ( 10.06, 144.66)
10 12/09/2020 02:57:51 ( 10.02, 155.19) 12/09/2020 03:01:26 ( 22.64, 152.19)
11 12/09/2020 15:29:44 ( 22.67, 152.42) 12/09/2020 15:33:18 ( 10.04, 149.42)
12 12/10/2020 02:38:48 ( 10.03, 159.95) 12/10/2020 02:42:23 ( 22.66, 156.95)
13 12/10/2020 15:10:41 ( 22.65, 157.17) 12/10/2020 15:14:16 ( 10.03, 154.17)
14 12/11/2020 02:19:46 ( 10.05, 164.71) 12/11/2020 02:23:21 ( 22.67, 161.71)
15 12/11/2020 14:51:38 ( 22.70, 161.95) 12/11/2020 14:55:14 ( 10.02, 158.93)
16 12/12/2020 03:42:12 ( 10.01, 144.10) 12/12/2020 03:45:48 ( 22.69, 141.09)
17 12/12/2020 14:33:52 ( 18.17, 165.59) 12/12/2020 14:36:11 ( 10.00, 163.69)
18 12/12/2020 16:14:05 ( 22.67, 141.33) 12/12/2020 16:16:13 ( 15.16, 139.51)
19 12/13/2020 03:23:10 ( 10.03, 148.86) 12/13/2020 03:26:45 ( 22.65, 145.86)
20 12/13/2020 15:55:03 ( 22.66, 146.08) 12/13/2020 15:58:38 ( 10.04, 143.08)
21 12/14/2020 03:04:07 ( 10.04, 153.61) 12/14/2020 03:07:42 ( 22.67, 150.61)
22 12/14/2020 15:35:59 ( 22.70, 150.85) 12/14/2020 15:39:35 ( 10.02, 147.84)
23 12/15/2020 02:45:04 ( 10.00, 158.38) 12/15/2020 02:48:40 ( 22.68, 155.37)
24 12/15/2020 15:16:57 ( 22.68, 155.61) 12/15/2020 15:20:33 ( 10.00, 152.60)
25 12/16/2020 02:26:01 ( 10.02, 163.14) 12/16/2020 02:29:36 ( 22.64, 160.14)
26 12/16/2020 14:57:54 ( 22.67, 160.36) 12/16/2020 15:01:29 ( 10.05, 157.36)
27 12/17/2020 02:09:46 ( 19.84, 165.59) 12/17/2020 02:10:34 ( 22.66, 164.89)
28 12/17/2020 03:48:29 ( 10.04, 142.52) 12/17/2020 03:52:04 ( 22.67, 139.52)
29 12/17/2020 14:38:52 ( 22.65, 165.12) 12/17/2020 14:42:27 ( 10.03, 162.12)
30 12/17/2020 16:20:21 ( 22.70, 139.76) 12/17/2020 16:20:38 ( 21.70, 139.51)
31 12/18/2020 03:29:26 ( 10.00, 147.29) 12/18/2020 03:33:02 ( 22.69, 144.27)
